Miscellaneous Local Product
Issued by NWS North Platte, NE

Home | Current Version | Previous Version | Text Only | Print | Product List | Glossary On
Versions: 1 2 3 4 5 6 7 8 9 10 11 12 13 14 15 16 17 18 19 20 21 22 23 24 25 26 27 28 29 30 31 32 33 34 35 36 37 38 39 40 41 42 43 44 45 46 47 48 49 50
000
AXUS43 KLBF 010510
MISLBF


WESTERN AND NORTH CENTRAL NEBRASKA HOURLY WEATHER ROUNDUP
NATIONAL WEATHER SERVICE NORTH PLATTE NE
1200 AM CDT WED JUL 01 2015

***STATIONS NOT REPORTING VARIABLES SUCH AS SKY/WEATHER OR
PRESSURE ARE PROVIDED BY THE NEBRASKA DEPARTMENT OF
ROADS...RAWS...AND APRS NETWORKS...AND ARE NOT UNDER
NATIONAL WEATHER SERVICE QUALITY CONTROL***

...OBSERVATIONS IN AND NEAR THE EASTERN PANHANDLE OF NEBRASKA...

CITY           SKY/WX    TMP DP  RH WIND       PRES   REMARKS
WHITECLAY        N/A     68  64  89 CALM        N/A
CRESCENT LAKE    N/A     75  64  68 N8          N/A
BIG SPRINGS      N/A     75  63  66 NE3         N/A
$$

...OBSERVATIONS IN NORTH CENTRAL NEBRASKA...

CITY           SKY/WX    TMP DP  RH WIND       PRES   REMARKS
THEDFORD       CLEAR     70  65  84 E9        29.91R
AINSWORTH      MOCLDY    67  61  81 SE9       29.90S
O`NEILL        MOCLDY    69  64  83 S13       29.88F
VALENTINE NWR    N/A     70  64  81 E9G16       N/A
SPRINGVIEW       N/A     69  62  79 E5G14       N/A
HALSEY           N/A     70  64  82 E9G16       N/A
BREWSTER         N/A     72  64  75 E15         N/A
ROSE             N/A     79  78  98 SE15        N/A
NEWPORT          N/A     69  65  84 SE10        N/A
SARGENT          N/A     69  62  78 E5          N/A
CHAMBERS         N/A     66  63  91 E3G12       N/A
EWING            N/A     66  64  92 SE3         N/A
$$

...OBSERVATIONS IN SOUTHWEST NEBRASKA AND FAR NORTHEAST COLORADO...

CITY           SKY/WX    TMP DP  RH WIND       PRES   REMARKS
WRAY           FAIR      75  58  55 W10       29.94R
HOLYOKE        FAIR      77  59  53 W8        29.94R
OGALLALA       TSTM      77  61  58 E16G39    29.89R
LEXINGTON      CLOUDY    76  67  73 E8        29.84S
PAXTON           N/A     78  62  58 CALM        N/A
GOTHENBURG       N/A     75  65  71 E5          N/A
CALLAWAY         N/A     73  69  88 E15         N/A
$$

...NORTH PLATTE AREA...

CITY           SKY/WX    TMP DP  RH WIND       PRES   REMARKS
DOWNTOWN         N/A     80  67  63 CALM        N/A
HILLCREST        N/A     77  65  67 E13G20      N/A
$$

...SOME WEATHER OBSERVATIONS FROM AROUND THE REGION...

CITY           SKY/WX    TMP DP  RH WIND       PRES   REMARKS
SIOUX FALLS    PTCLDY    68  64  87 E8        29.89S
OMAHA          TSTM      71  68  90 S8        29.91F
HAYS           CLEAR     82  52  34 SW14      29.85S
LIBERAL        CLEAR     77  54  44 S14       29.99R
$$



USA.gov is the U.S. government's official web portal to all federal, state and local government web resources and services.